| time (UTC) | temp F | wind direction | speed knots | gust knots | rain 1hr in | rain 24hr in | rain mn in | humidity % | barometer mb |
| 20260508070436 | 61 | 301 | 2.6 | 0.0 | 0.00 | 0.00 | 0.00 | 78 | 1017.9 |
| 20260508065937 | 61 | 286 | 2.6 | 0.0 | 0.00 | 0.00 | 0.00 | 77 | 1017.9 |
| 20260508065435 | 62 | 3 | 0.0 | 0.0 | 0.00 | 0.00 | 0.00 | 77 | 1017.9 |
| 20260508064836 | 62 | 202 | 0.0 | 0.0 | 0.00 | 0.00 | 0.00 | 77 | 1017.9 |
| 20260508064435 | 62 | 236 | 1.7 | 0.0 | 0.00 | 0.00 | 0.00 | 76 | 1017.9 |
| 20260508063933 | 62 | 192 | 2.6 | 0.0 | 0.00 | 0.00 | 0.00 | 76 | 1017.9 |
| 20260508063437 | 63 | 339 | 4.3 | 0.0 | 0.00 | 0.00 | 0.00 | 76 | 1017.9 |
| 20260508062935 | 63 | 242 | 4.3 | 0.0 | 0.00 | 0.00 | 0.00 | 77 | 1017.9 |
| 20260508062434 | 62 | 264 | 4.3 | 0.0 | 0.00 | 0.00 | 0.00 | 77 | 1017.9 |
| 20260508061933 | 62 | 262 | 0.0 | 0.0 | 0.00 | 0.00 | 0.00 | 75 | 1017.6 |
| 20260508061435 | 62 | 267 | 0.0 | 0.0 | 0.00 | 0.00 | 0.00 | 74 | 1017.9 |
| 20260508060934 | 62 | 319 | 0.0 | 0.0 | 0.00 | 0.00 | 0.00 | 73 | 1017.6 |
| 20260508060434 | 63 | 134 | 0.0 | 0.0 | 0.00 | 0.00 | 0.00 | 73 | 1017.6 |
| 20260508055834 | 63 | 272 | 0.0 | 0.0 | 0.00 | 0.00 | 0.00 | 73 | 1017.6 |
| 20260508055434 | 63 | 279 | 0.0 | 0.0 | 0.00 | 0.00 | 0.00 | 73 | 1017.6 |
| 20260508054935 | 63 | 288 | 0.0 | 0.0 | 0.00 | 0.00 | 0.00 | 72 | 1017.6 |
| 20260508054434 | 63 | 239 | 0.0 | 0.0 | 0.00 | 0.00 | 0.00 | 72 | 1017.6 |
| 20260508053933 | 64 | 219 | 0.0 | 0.0 | 0.00 | 0.00 | 0.00 | 72 | 1017.6 |
| 20260508053431 | 64 | 176 | 0.0 | 0.0 | 0.00 | 0.00 | 0.00 | 71 | 1017.6 |
| 20260508052932 | 64 | 232 | 0.0 | 0.0 | 0.00 | 0.00 | 0.00 | 70 | 1017.6 |
| 20260508052433 | 64 | 280 | 0.0 | 0.0 | 0.00 | 0.00 | 0.00 | 71 | 1017.6 |
| 20260508051843 | 64 | 258 | 0.0 | 0.0 | 0.00 | 0.00 | 0.00 | 70 | 1017.6 |
| 20260508051341 | 64 | 284 | 0.0 | 0.0 | 0.00 | 0.00 | 0.00 | 71 | 1017.6 |
| 20260508050932 | 64 | 271 | 0.0 | 0.0 | 0.00 | 0.00 | 0.00 | 70 | 1017.6 |
| 20260508050337 | 65 | 285 | 0.0 | 0.0 | 0.00 | 0.00 | 0.00 | 69 | 1017.6 |
| 20260508045934 | 65 | 227 | 0.0 | 0.0 | 0.00 | 0.00 | 0.00 | 69 | 1017.6 |
| 20260508045431 | 65 | 256 | 0.0 | 0.0 | 0.00 | 0.00 | 0.00 | 68 | 1017.6 |
| 20260508044931 | 66 | 245 | 0.0 | 0.0 | 0.00 | 0.00 | 0.00 | 68 | 1017.3 |
| 20260508044430 | 66 | 216 | 0.0 | 0.0 | 0.00 | 0.00 | 0.00 | 68 | 1017.3 |
| 20260508043931 | 66 | 312 | 0.0 | 0.0 | 0.00 | 0.00 | 0.00 | 68 | 1017.3 |
| 20260508043431 | 66 | 297 | 0.0 | 0.0 | 0.00 | 0.00 | 0.00 | 66 | 1017.3 |
| 20260508042930 | 67 | 287 | 0.0 | 0.0 | 0.00 | 0.00 | 0.00 | 67 | 1017.3 |
| 20260508042430 | 67 | 317 | 0.0 | 0.0 | 0.00 | 0.00 | 0.00 | 67 | 1017.3 |
| 20260508041836 | 67 | 304 | 0.0 | 0.0 | 0.00 | 0.00 | 0.00 | 64 | 1016.9 |
| 20260508041430 | 67 | 322 | 0.0 | 0.0 | 0.00 | 0.00 | 0.00 | 64 | 1016.9 |
| 20260508040843 | 67 | 306 | 0.0 | 0.0 | 0.00 | 0.00 | 0.00 | 63 | 1016.9 |
| 20260508040432 | 68 | 358 | 0.0 | 0.0 | 0.00 | 0.00 | 0.00 | 61 | 1016.9 |
| 20260508035930 | 68 | 230 | 0.0 | 0.0 | 0.00 | 0.00 | 0.00 | 60 | 1016.6 |
| 20260508035428 | 68 | 303 | 0.0 | 0.0 | 0.00 | 0.00 | 0.00 | 60 | 1016.6 |
| 20260508034930 | 69 | 289 | 0.0 | 0.0 | 0.00 | 0.00 | 0.00 | 60 | 1016.6 |
| 20260508034429 | 69 | 289 | 0.0 | 0.0 | 0.00 | 0.00 | 0.00 | 59 | 1016.6 |
| 20260508033930 | 69 | 299 | 0.0 | 0.0 | 0.00 | 0.00 | 0.00 | 58 | 1016.6 |
| 20260508033429 | 69 | 252 | 3.5 | 0.0 | 0.00 | 0.00 | 0.00 | 58 | 1016.3 |
| 20260508032929 | 70 | 227 | 3.5 | 0.0 | 0.00 | 0.00 | 0.00 | 60 | 1016.3 |
| 20260508032338 | 70 | 242 | 3.5 | 0.0 | 0.00 | 0.00 | 0.00 | 59 | 1016.3 |
| 20260508031829 | 71 | 143 | 2.6 | 0.0 | 0.00 | 0.00 | 0.00 | 57 | 1016.3 |
| 20260508031338 | 71 | 255 | 4.3 | 0.0 | 0.00 | 0.00 | 0.00 | 56 | 1016.3 |
| 20260508030830 | 72 | 131 | 4.3 | 0.0 | 0.00 | 0.00 | 0.00 | 56 | 1016.3 |
| 20260508030341 | 72 | 193 | 1.7 | 0.0 | 0.00 | 0.00 | 0.00 | 54 | 1016.3 |
| 20260508025837 | 73 | 141 | 6.1 | 0.0 | 0.00 | 0.00 | 0.00 | 53 | 1015.9 |
| 20260508025342 | 73 | 134 | 6.1 | 0.0 | 0.00 | 0.00 | 0.00 | 54 | 1015.9 |
| 20260508024836 | 73 | 232 | 6.1 | 0.0 | 0.00 | 0.00 | 0.00 | 54 | 1015.9 |
| 20260508024327 | 74 | 92 | 5.2 | 0.0 | 0.00 | 0.00 | 0.00 | 53 | 1015.6 |
| 20260508023839 | 74 | 38 | 4.3 | 0.0 | 0.00 | 0.00 | 0.00 | 51 | 1015.6 |
| 20260508023336 | 75 | 126 | 6.1 | 0.0 | 0.00 | 0.00 | 0.00 | 51 | 1015.6 |
| 20260508022838 | 76 | 145 | 6.1 | 0.0 | 0.00 | 0.00 | 0.00 | 49 | 1015.2 |
| 20260508022327 | 77 | 68 | 0.0 | 0.0 | 0.00 | 0.00 | 0.00 | 46 | 1015.2 |
| 20260508021826 | 77 | 87 | 0.0 | 0.0 | 0.00 | 0.00 | 0.00 | 42 | 1015.2 |
| 20260508021337 | 77 | 350 | 0.0 | 0.0 | 0.00 | 0.00 | 0.00 | 41 | 1015.2 |
| 20260508020836 | 78 | 315 | 3.5 | 0.0 | 0.00 | 0.00 | 0.00 | 40 | 1015.2 |
| 20260508020343 | 78 | 296 | 5.2 | 0.0 | 0.00 | 0.00 | 0.00 | 39 | 1015.2 |
| 20260508015840 | 79 | 316 | 6.1 | 0.0 | 0.00 | 0.00 | 0.00 | 39 | 1015.2 |
| 20260508015338 | 79 | 314 | 5.2 | 0.0 | 0.00 | 0.00 | 0.00 | 38 | 1015.2 |
| 20260508014843 | 79 | 336 | 6.1 | 0.0 | 0.00 | 0.00 | 0.00 | 38 | 1015.2 |
| 20260508014336 | 80 | 351 | 5.2 | 0.0 | 0.00 | 0.00 | 0.00 | 37 | 1015.2 |
| 20260508013838 | 80 | 314 | 5.2 | 0.0 | 0.00 | 0.00 | 0.00 | 36 | 1015.2 |
| 20260508013338 | 81 | 302 | 5.2 | 0.0 | 0.00 | 0.00 | 0.00 | 36 | 1015.2 |
| 20260508012824 | 81 | 308 | 3.5 | 0.0 | 0.00 | 0.00 | 0.00 | 35 | 1015.2 |
| 20260508012343 | 82 | 289 | 6.1 | 0.0 | 0.00 | 0.00 | 0.00 | 34 | 1015.2 |
| 20260508011840 | 82 | 342 | 4.3 | 0.0 | 0.00 | 0.00 | 0.00 | 34 | 1014.9 |
| 20260508011343 | 84 | 268 | 6.1 | 0.0 | 0.00 | 0.00 | 0.00 | 33 | 1014.9 |
| 20260508010841 | 85 | 292 | 5.2 | 0.0 | 0.00 | 0.00 | 0.00 | 32 | 1014.9 |
| 20260508010338 | 86 | 315 | 5.2 | 0.0 | 0.00 | 0.00 | 0.00 | 31 | 1014.9 |
| 20260508005836 | 86 | 280 | 5.2 | 0.0 | 0.00 | 0.00 | 0.00 | 31 | 1014.9 |
| 20260508005340 | 86 | 320 | 5.2 | 0.0 | 0.00 | 0.00 | 0.00 | 30 | 1014.9 |
| 20260508004837 | 87 | 314 | 6.1 | 0.0 | 0.00 | 0.00 | 0.00 | 30 | 1014.9 |
| 20260508004339 | 87 | 305 | 6.1 | 0.0 | 0.00 | 0.00 | 0.00 | 27 | 1014.9 |
| 20260508003837 | 87 | 277 | 7.8 | 0.0 | 0.00 | 0.00 | 0.00 | 28 | 1014.9 |
| 20260508003341 | 88 | 311 | 7.0 | 0.0 | 0.00 | 0.00 | 0.00 | 28 | 1014.9 |
| 20260508002838 | 88 | 323 | 7.8 | 0.0 | 0.00 | 0.00 | 0.00 | 28 | 1014.6 |
| 20260508002338 | 88 | 6 | 7.8 | 0.0 | 0.00 | 0.00 | 0.00 | 27 | 1014.9 |
| 20260508001838 | 89 | 287 | 7.8 | 0.0 | 0.00 | 0.00 | 0.00 | 27 | 1014.6 |
| 20260508001343 | 89 | 285 | 7.0 | 0.0 | 0.00 | 0.00 | 0.00 | 27 | 1014.6 |
| 20260508000840 | 88 | 304 | 8.7 | 0.0 | 0.00 | 0.00 | 0.00 | 27 | 1014.6 |
| 20260508000342 | 89 | 314 | 7.0 | 0.0 | 0.00 | 0.00 | 0.00 | 27 | 1014.6 |
| 20260507235839 | 89 | 303 | 8.7 | 0.0 | 0.00 | 0.00 | 0.00 | 27 | 1014.6 |
| 20260507235339 | 89 | 331 | 9.6 | 0.0 | 0.00 | 0.00 | 0.00 | 27 | 1014.6 |
| 20260507234836 | 89 | 312 | 8.7 | 0.0 | 0.00 | 0.00 | 0.00 | 27 | 1014.6 |
| 20260507234342 | 89 | 328 | 11.3 | 0.0 | 0.00 | 0.00 | 0.00 | 27 | 1014.6 |
| 20260507233841 | 89 | 287 | 11.3 | 0.0 | 0.00 | 0.00 | 0.00 | 27 | 1014.6 |
| 20260507233338 | 90 | 285 | 8.7 | 0.0 | 0.00 | 0.00 | 0.00 | 26 | 1014.6 |
| 20260507232835 | 90 | 292 | 7.0 | 0.0 | 0.00 | 0.00 | 0.00 | 27 | 1014.6 |
| 20260507232338 | 90 | 12 | 11.3 | 0.0 | 0.00 | 0.00 | 0.00 | 26 | 1014.6 |
| 20260507231840 | 90 | 331 | 11.3 | 0.0 | 0.00 | 0.00 | 0.00 | 26 | 1014.2 |
| 20260507231335 | 89 | 334 | 11.3 | 0.0 | 0.00 | 0.00 | 0.00 | 26 | 1014.6 |
| 20260507230842 | 90 | 294 | 11.3 | 0.0 | 0.00 | 0.00 | 0.00 | 26 | 1014.6 |
| 20260507230339 | 89 | 313 | 12.2 | 0.0 | 0.00 | 0.00 | 0.00 | 27 | 1014.2 |
| 20260507225838 | 90 | 315 | 11.3 | 0.0 | 0.00 | 0.00 | 0.00 | 25 | 1014.2 |
| 20260507225337 | 90 | 308 | 11.3 | 0.0 | 0.00 | 0.00 | 0.00 | 26 | 1014.6 |
| 20260507224839 | 90 | 312 | 11.3 | 0.0 | 0.00 | 0.00 | 0.00 | 26 | 1014.6 |
| 20260507224341 | 89 | 314 | 13.0 | 0.0 | 0.00 | 0.00 | 0.00 | 26 | 1014.6 |
| 20260507223839 | 90 | 334 | 13.0 | 0.0 | 0.00 | 0.00 | 0.00 | 26 | 1014.6 |
| 20260507223342 | 90 | 306 | 12.2 | 0.0 | 0.00 | 0.00 | 0.00 | 28 | 1014.6 |
| 20260507222838 | 90 | 359 | 12.2 | 0.0 | 0.00 | 0.00 | 0.00 | 29 | 1014.6 |
| 20260507222339 | 90 | 324 | 7.8 | 0.0 | 0.00 | 0.00 | 0.00 | 27 | 1014.6 |
| 20260507221839 | 90 | 304 | 9.6 | 0.0 | 0.00 | 0.00 | 0.00 | 28 | 1014.6 |
| 20260507221342 | 90 | 310 | 11.3 | 0.0 | 0.00 | 0.00 | 0.00 | 28 | 1014.6 |
| 20260507220843 | 90 | 303 | 12.2 | 0.0 | 0.00 | 0.00 | 0.00 | 28 | 1014.6 |
| 20260507220340 | 91 | 1 | 13.0 | 0.0 | 0.00 | 0.00 | 0.00 | 27 | 1014.6 |
| 20260507215837 | 91 | 135 | 11.3 | 0.0 | 0.00 | 0.00 | 0.00 | 27 | 1014.9 |
| 20260507215339 | 92 | 254 | 9.6 | 0.0 | 0.00 | 0.00 | 0.00 | 27 | 1014.9 |
| 20260507214841 | 92 | 285 | 7.0 | 0.0 | 0.00 | 0.00 | 0.00 | 27 | 1014.9 |
| 20260507214341 | 91 | 295 | 9.6 | 0.0 | 0.00 | 0.00 | 0.00 | 27 | 1014.9 |
| 20260507213837 | 91 | 329 | 13.9 | 0.0 | 0.00 | 0.00 | 0.00 | 27 | 1014.9 |
| 20260507213341 | 91 | 322 | 13.9 | 0.0 | 0.00 | 0.00 | 0.00 | 27 | 1014.9 |
| 20260507212843 | 92 | 281 | 10.4 | 0.0 | 0.00 | 0.00 | 0.00 | 28 | 1015.2 |
| 20260507212340 | 92 | 303 | 10.4 | 0.0 | 0.00 | 0.00 | 0.00 | 28 | 1015.2 |
| 20260507211835 | 91 | 296 | 8.7 | 0.0 | 0.00 | 0.00 | 0.00 | 28 | 1015.2 |
| 20260507211340 | 91 | 345 | 11.3 | 0.0 | 0.00 | 0.00 | 0.00 | 28 | 1015.2 |
| 20260507210841 | 90 | 5 | 13.0 | 0.0 | 0.00 | 0.00 | 0.00 | 29 | 1015.2 |
| 20260507210344 | 91 | 337 | 10.4 | 0.0 | 0.00 | 0.00 | 0.00 | 29 | 1015.2 |
| 20260507205841 | 91 | 352 | 8.7 | 0.0 | 0.00 | 0.00 | 0.00 | 27 | 1015.2 |
| 20260507205341 | 91 | 248 | 11.3 | 0.0 | 0.00 | 0.00 | 0.00 | 29 | 1015.2 |
| 20260507204839 | 92 | 322 | 11.3 | 0.0 | 0.00 | 0.00 | 0.00 | 28 | 1015.6 |
| 20260507204341 | 92 | 320 | 7.8 | 0.0 | 0.00 | 0.00 | 0.00 | 27 | 1015.6 |
| 20260507203840 | 91 | 358 | 12.2 | 0.0 | 0.00 | 0.00 | 0.00 | 29 | 1015.6 |
| 20260507203338 | 90 | 334 | 12.2 | 0.0 | 0.00 | 0.00 | 0.00 | 27 | 1015.6 |
| 20260507202842 | 92 | 251 | 7.8 | 0.0 | 0.00 | 0.00 | 0.00 | 27 | 1015.6 |
| 20260507202344 | 92 | 3 | 6.1 | 0.0 | 0.00 | 0.00 | 0.00 | 25 | 1015.6 |
| 20260507201839 | 92 | 312 | 7.8 | 0.0 | 0.00 | 0.00 | 0.00 | 27 | 1015.6 |
| 20260507201341 | 91 | 332 | 8.7 | 0.0 | 0.00 | 0.00 | 0.00 | 26 | 1015.6 |
| 20260507200836 | 92 | 350 | 7.8 | 0.0 | 0.00 | 0.00 | 0.00 | 25 | 1015.6 |
| 20260507200342 | 92 | 151 | 9.6 | 0.0 | 0.00 | 0.00 | 0.00 | 26 | 1015.9 |
| 20260507195838 | 91 | 337 | 9.6 | 0.0 | 0.00 | 0.00 | 0.00 | 26 | 1015.9 |
| 20260507195342 | 91 | 1 | 7.8 | 0.0 | 0.00 | 0.00 | 0.00 | 25 | 1015.9 |
| 20260507194839 | 91 | 272 | 8.7 | 0.0 | 0.00 | 0.00 | 0.00 | 25 | 1016.3 |
| 20260507194342 | 90 | 12 | 8.7 | 0.0 | 0.00 | 0.00 | 0.00 | 26 | 1016.3 |
| 20260507193844 | 91 | 72 | 5.2 | 0.0 | 0.00 | 0.00 | 0.00 | 27 | 1016.3 |
| 20260507193341 | 89 | 243 | 5.2 | 0.0 | 0.00 | 0.00 | 0.00 | 29 | 1016.3 |
| 20260507192841 | 89 | 73 | 5.2 | 0.0 | 0.00 | 0.00 | 0.00 | 30 | 1016.3 |
| 20260507192342 | 88 | 132 | 5.2 | 0.0 | 0.00 | 0.00 | 0.00 | 31 | 1016.3 |
| 20260507191841 | 87 | 66 | 6.1 | 0.0 | 0.00 | 0.00 | 0.00 | 32 | 1016.6 |
| 20260507191339 | 87 | 82 | 5.2 | 0.0 | 0.00 | 0.00 | 0.00 | 33 | 1016.6 |
| 20260507190839 | 88 | 34 | 6.1 | 0.0 | 0.00 | 0.00 | 0.00 | 32 | 1016.6 |
| 20260507190335 | 88 | 50 | 5.2 | 0.0 | 0.00 | 0.00 | 0.00 | 32 | 1016.6 |
| 20260507185840 | 88 | 99 | 5.2 | 0.0 | 0.00 | 0.00 | 0.00 | 32 | 1016.9 |
| 20260507185338 | 88 | 265 | 5.2 | 0.0 | 0.00 | 0.00 | 0.00 | 33 | 1016.9 |
| 20260507184841 | 87 | 316 | 4.3 | 0.0 | 0.00 | 0.00 | 0.00 | 33 | 1016.9 |
| 20260507184344 | 86 | 343 | 5.2 | 0.0 | 0.00 | 0.00 | 0.00 | 34 | 1016.9 |
| 20260507183843 | 86 | 305 | 5.2 | 0.0 | 0.00 | 0.00 | 0.00 | 34 | 1016.9 |
| 20260507183339 | 85 | 43 | 6.1 | 0.0 | 0.00 | 0.00 | 0.00 | 35 | 1017.3 |
| 20260507182837 | 85 | 95 | 6.1 | 0.0 | 0.00 | 0.00 | 0.00 | 36 | 1017.3 |
| 20260507182341 | 84 | 104 | 5.2 | 0.0 | 0.00 | 0.00 | 0.00 | 37 | 1017.3 |
| 20260507181942 | 85 | 144 | 5.2 | 0.0 | 0.00 | 0.00 | 0.00 | 36 | 1017.3 |
| 20260507181612 | 84 | 127 | 5.2 | 0.0 | 0.00 | 0.00 | 0.00 | 36 | 1017.3 |
| 20260507180811 | 84 | 159 | 5.2 | 0.0 | 0.00 | 0.00 | 0.00 | 38 | 1017.3 |
| 20260507180338 | 83 | 153 | 5.2 | 0.0 | 0.00 | 0.00 | 0.00 | 40 | 1017.3 |
| 20260507175844 | 83 | 84 | 5.2 | 0.0 | 0.00 | 0.00 | 0.00 | 40 | 1017.6 |
| 20260507175336 | 83 | 225 | 4.3 | 0.0 | 0.00 | 0.00 | 0.00 | 40 | 1017.6 |
| 20260507174840 | 82 | 43 | 3.5 | 0.0 | 0.00 | 0.00 | 0.00 | 41 | 1017.6 |
| 20260507174339 | 81 | 130 | 3.5 | 0.0 | 0.00 | 0.00 | 0.00 | 42 | 1017.6 |
| 20260507173843 | 81 | 185 | 2.6 | 0.0 | 0.00 | 0.00 | 0.00 | 43 | 1017.6 |
| 20260507173336 | 80 | 41 | 5.2 | 0.0 | 0.00 | 0.00 | 0.00 | 43 | 1017.6 |
| 20260507172844 | 80 | 100 | 3.5 | 0.0 | 0.00 | 0.00 | 0.00 | 43 | 1017.6 |
| 20260507172325 | 80 | 122 | 3.5 | 0.0 | 0.00 | 0.00 | 0.00 | 45 | 1017.6 |
| 20260507171825 | 79 | 81 | 3.5 | 0.0 | 0.00 | 0.00 | 0.00 | 45 | 1017.6 |
| 20260507171325 | 79 | 125 | 3.5 | 0.0 | 0.00 | 0.00 | 0.00 | 44 | 1017.6 |
| 20260507170825 | 79 | 252 | 2.6 | 0.0 | 0.00 | 0.00 | 0.00 | 44 | 1017.9 |
| 20260507170327 | 79 | 238 | 3.5 | 0.0 | 0.00 | 0.00 | 0.00 | 46 | 1017.9 |
| 20260507165839 | 78 | 311 | 3.5 | 0.0 | 0.00 | 0.00 | 0.00 | 47 | 1017.9 |
| 20260507165323 | 78 | 79 | 3.5 | 0.0 | 0.00 | 0.00 | 0.00 | 47 | 1017.9 |
| 20260507164838 | 77 | 122 | 3.5 | 0.0 | 0.00 | 0.00 | 0.00 | 47 | 1017.9 |
| 20260507164339 | 77 | 321 | 3.5 | 0.0 | 0.00 | 0.00 | 0.00 | 47 | 1017.9 |
| 20260507163836 | 77 | 106 | 2.6 | 0.0 | 0.00 | 0.00 | 0.00 | 47 | 1017.9 |
| 20260507163337 | 76 | 251 | 3.5 | 0.0 | 0.00 | 0.00 | 0.00 | 49 | 1018.3 |
| 20260507162838 | 75 | 288 | 3.5 | 0.0 | 0.00 | 0.00 | 0.00 | 51 | 1018.3 |
| 20260507162338 | 74 | 71 | 3.5 | 0.0 | 0.00 | 0.00 | 0.00 | 51 | 1018.3 |
| 20260507161837 | 74 | 66 | 3.5 | 0.0 | 0.00 | 0.00 | 0.00 | 52 | 1018.3 |
| 20260507161338 | 73 | 134 | 3.5 | 0.0 | 0.00 | 0.00 | 0.00 | 52 | 1018.3 |
| 20260507160841 | 72 | 117 | 2.6 | 0.0 | 0.00 | 0.00 | 0.00 | 54 | 1018.3 |
| 20260507160338 | 72 | 119 | 4.3 | 0.0 | 0.00 | 0.00 | 0.00 | 55 | 1018.3 |
| 20260507155841 | 71 | 215 | 4.3 | 0.0 | 0.00 | 0.00 | 0.00 | 57 | 1018.3 |
| 20260507155340 | 70 | 46 | 4.3 | 0.0 | 0.00 | 0.00 | 0.00 | 57 | 1018.3 |
| 20260507154841 | 71 | 299 | 3.5 | 0.0 | 0.00 | 0.00 | 0.00 | 57 | 1018.3 |
| 20260507154340 | 71 | 354 | 0.0 | 0.0 | 0.00 | 0.00 | 0.00 | 56 | 1018.3 |
| 20260507153822 | 70 | 38 | 0.0 | 0.0 | 0.00 | 0.00 | 0.00 | 57 | 1018.3 |
| 20260507153342 | 69 | 138 | 0.0 | 0.0 | 0.00 | 0.00 | 0.00 | 59 | 1018.3 |
| 20260507152841 | 69 | 186 | 0.0 | 0.0 | 0.00 | 0.00 | 0.00 | 60 | 1018.3 |
| 20260507152342 | 68 | 13 | 0.0 | 0.0 | 0.00 | 0.00 | 0.00 | 60 | 1018.3 |
| 20260507151837 | 68 | 152 | 0.0 | 0.0 | 0.00 | 0.00 | 0.00 | 62 | 1018.3 |
| 20260507151340 | 67 | 102 | 0.0 | 0.0 | 0.00 | 0.00 | 0.00 | 63 | 1018.3 |
| 20260507150841 | 67 | 109 | 0.0 | 0.0 | 0.00 | 0.00 | 0.00 | 64 | 1018.3 |
| 20260507150336 | 65 | 349 | 0.0 | 0.0 | 0.00 | 0.00 | 0.00 | 65 | 1018.3 |
| 20260507145843 | 65 | 50 | 0.0 | 0.0 | 0.00 | 0.00 | 0.00 | 65 | 1018.3 |
| 20260507145341 | 65 | 68 | 0.0 | 0.0 | 0.00 | 0.00 | 0.00 | 67 | 1018.3 |
| 20260507144841 | 64 | 157 | 0.0 | 0.0 | 0.00 | 0.00 | 0.00 | 68 | 1018.3 |
| 20260507144318 | 63 | 53 | 0.0 | 0.0 | 0.00 | 0.00 | 0.00 | 70 | 1018.3 |
| 20260507143837 | 62 | 74 | 0.0 | 0.0 | 0.00 | 0.00 | 0.00 | 73 | 1018.3 |
| 20260507143342 | 62 | 41 | 0.0 | 0.0 | 0.00 | 0.00 | 0.00 | 73 | 1018.3 |
| 20260507142838 | 61 | 354 | 0.0 | 0.0 | 0.00 | 0.00 | 0.00 | 75 | 1018.3 |
| 20260507142336 | 60 | 348 | 0.0 | 0.0 | 0.00 | 0.00 | 0.00 | 76 | 1018.3 |
| 20260507141837 | 59 | 311 | 0.0 | 0.0 | 0.00 | 0.00 | 0.00 | 78 | 1018.3 |
| 20260507141337 | 59 | 331 | 0.0 | 0.0 | 0.00 | 0.00 | 0.00 | 79 | 1018.3 |
| 20260507140841 | 58 | 51 | 0.0 | 0.0 | 0.00 | 0.00 | 0.00 | 81 | 1018.3 |
| 20260507140338 | 57 | 350 | 0.0 | 0.0 | 0.00 | 0.00 | 0.00 | 82 | 1018.3 |
| 20260507135841 | 57 | 315 | 0.0 | 0.0 | 0.00 | 0.00 | 0.00 | 84 | 1018.3 |
| 20260507135341 | 57 | 342 | 0.0 | 0.0 | 0.00 | 0.00 | 0.00 | 87 | 1018.3 |
| 20260507134819 | 56 | 356 | 0.0 | 0.0 | 0.00 | 0.00 | 0.00 | 88 | 1018.3 |
| 20260507134343 | 55 | 334 | 0.0 | 0.0 | 0.00 | 0.00 | 0.00 | 89 | 1018.3 |
| 20260507133842 | 53 | 309 | 0.0 | 0.0 | 0.00 | 0.00 | 0.00 | 90 | 1018.3 |
| 20260507133341 | 52 | 152 | 0.0 | 0.0 | 0.00 | 0.00 | 0.00 | 89 | 1018.3 |
| 20260507132837 | 51 | 294 | 0.0 | 0.0 | 0.00 | 0.00 | 0.00 | 89 | 1017.9 |
| 20260507132337 | 50 | 294 | 0.0 | 0.0 | 0.00 | 0.00 | 0.00 | 89 | 1018.3 |
| 20260507131838 | 50 | 288 | 0.0 | 0.0 | 0.00 | 0.00 | 0.00 | 89 | 1017.9 |
| 20260507131337 | 50 | 232 | 0.0 | 0.0 | 0.00 | 0.00 | 0.00 | 89 | 1017.9 |
| 20260507130841 | 50 | 278 | 0.0 | 0.0 | 0.00 | 0.00 | 0.00 | 89 | 1017.9 |
| 20260507130336 | 50 | 293 | 0.0 | 0.0 | 0.00 | 0.00 | 0.00 | 89 | 1017.9 |
| 20260507125839 | 50 | 288 | 0.0 | 0.0 | 0.00 | 0.00 | 0.00 | 89 | 1017.6 |
| 20260507125315 | 50 | 270 | 0.0 | 0.0 | 0.00 | 0.00 | 0.00 | 88 | 1017.6 |
| 20260507124842 | 50 | 284 | 0.0 | 0.0 | 0.00 | 0.00 | 0.00 | 88 | 1017.6 |
| 20260507124342 | 50 | 296 | 0.0 | 0.0 | 0.00 | 0.00 | 0.00 | 88 | 1017.6 |
| 20260507123837 | 50 | 290 | 0.0 | 0.0 | 0.00 | 0.00 | 0.00 | 87 | 1017.6 |
| 20260507123314 | 51 | 190 | 0.0 | 0.0 | 0.00 | 0.00 | 0.00 | 87 | 1017.6 |
| 20260507122838 | 51 | 295 | 0.0 | 0.0 | 0.00 | 0.00 | 0.00 | 87 | 1017.6 |
| 20260507122342 | 51 | 303 | 0.0 | 0.0 | 0.00 | 0.00 | 0.00 | 87 | 1017.6 |
| 20260507121841 | 52 | 298 | 0.0 | 0.0 | 0.00 | 0.00 | 0.00 | 88 | 1017.6 |
| 20260507121335 | 52 | 325 | 0.0 | 0.0 | 0.00 | 0.00 | 0.00 | 88 | 1017.6 |
| 20260507120840 | 52 | 291 | 0.0 | 0.0 | 0.00 | 0.00 | 0.00 | 88 | 1017.6 |
| 20260507120335 | 52 | 304 | 0.0 | 0.0 | 0.00 | 0.00 | 0.00 | 88 | 1017.6 |
| 20260507115813 | 52 | 301 | 0.0 | 0.0 | 0.00 | 0.00 | 0.00 | 88 | 1017.6 |
| 20260507115338 | 52 | 282 | 0.0 | 0.0 | 0.00 | 0.00 | 0.00 | 88 | 1017.9 |
| 20260507114842 | 52 | 285 | 0.0 | 0.0 | 0.00 | 0.00 | 0.00 | 88 | 1017.9 |
| 20260507114341 | 52 | 224 | 0.0 | 0.0 | 0.00 | 0.00 | 0.00 | 88 | 1017.9 |
| 20260507113840 | 52 | 171 | 0.0 | 0.0 | 0.00 | 0.00 | 0.00 | 88 | 1017.9 |
| 20260507113344 | 52 | 200 | 0.0 | 0.0 | 0.00 | 0.00 | 0.00 | 87 | 1017.9 |
| 20260507112838 | 52 | 201 | 0.0 | 0.0 | 0.00 | 0.00 | 0.00 | 86 | 1017.9 |
| 20260507112343 | 52 | 175 | 0.0 | 0.0 | 0.00 | 0.00 | 0.00 | 86 | 1018.3 |
| 20260507111840 | 52 | 207 | 0.0 | 0.0 | 0.00 | 0.00 | 0.00 | 86 | 1018.3 |
| 20260507111344 | 52 | 305 | 0.0 | 0.0 | 0.00 | 0.00 | 0.00 | 86 | 1017.9 |
| 20260507110837 | 52 | 247 | 0.0 | 0.0 | 0.00 | 0.00 | 0.00 | 86 | 1018.3 |
| 20260507110341 | 52 | 188 | 0.0 | 0.0 | 0.00 | 0.00 | 0.00 | 86 | 1018.3 |
| 20260507105841 | 52 | 273 | 0.0 | 0.0 | 0.00 | 0.00 | 0.00 | 86 | 1018.3 |
| 20260507105339 | 52 | 311 | 0.0 | 0.0 | 0.00 | 0.00 | 0.00 | 86 | 1018.3 |
| 20260507104837 | 52 | 265 | 0.0 | 0.0 | 0.00 | 0.00 | 0.00 | 84 | 1018.3 |
| 20260507104336 | 52 | 296 | 0.0 | 0.0 | 0.00 | 0.00 | 0.00 | 84 | 1018.3 |
| 20260507103836 | 52 | 279 | 0.0 | 0.0 | 0.00 | 0.00 | 0.00 | 84 | 1018.3 |
| 20260507103340 | 52 | 286 | 0.0 | 0.0 | 0.00 | 0.00 | 0.00 | 84 | 1018.3 |
| 20260507102839 | 53 | 282 | 0.0 | 0.0 | 0.00 | 0.00 | 0.00 | 83 | 1018.3 |
| 20260507102337 | 53 | 301 | 0.0 | 0.0 | 0.00 | 0.00 | 0.00 | 83 | 1018.3 |
| 20260507101835 | 53 | 211 | 0.0 | 0.0 | 0.00 | 0.00 | 0.00 | 83 | 1018.3 |
| 20260507101335 | 53 | 296 | 0.0 | 0.0 | 0.00 | 0.00 | 0.00 | 83 | 1018.3 |
| 20260507100841 | 54 | 231 | 0.0 | 0.0 | 0.00 | 0.00 | 0.00 | 83 | 1018.3 |
| 20260507100341 | 54 | 295 | 0.0 | 0.0 | 0.00 | 0.00 | 0.00 | 84 | 1018.3 |
| 20260507095840 | 54 | 307 | 0.0 | 0.0 | 0.00 | 0.00 | 0.00 | 83 | 1018.3 |
| 20260507095337 | 54 | 257 | 0.0 | 0.0 | 0.00 | 0.00 | 0.00 | 83 | 1018.6 |
| 20260507094837 | 54 | 295 | 0.0 | 0.0 | 0.00 | 0.00 | 0.00 | 83 | 1018.6 |
| 20260507094342 | 54 | 272 | 0.0 | 0.0 | 0.00 | 0.00 | 0.00 | 83 | 1018.6 |
| 20260507093840 | 54 | 300 | 0.0 | 0.0 | 0.00 | 0.00 | 0.00 | 83 | 1018.6 |
| 20260507093336 | 53 | 283 | 0.0 | 0.0 | 0.00 | 0.00 | 0.00 | 82 | 1018.6 |
| 20260507092839 | 54 | 322 | 0.0 | 0.0 | 0.00 | 0.00 | 0.00 | 82 | 1018.6 |
| 20260507092337 | 54 | 289 | 0.0 | 0.0 | 0.00 | 0.00 | 0.00 | 82 | 1018.6 |
| 20260507091840 | 54 | 316 | 0.0 | 0.0 | 0.00 | 0.00 | 0.00 | 81 | 1018.6 |
| 20260507091314 | 54 | 299 | 0.0 | 0.0 | 0.00 | 0.00 | 0.00 | 81 | 1018.6 |
| 20260507090838 | 55 | 326 | 0.0 | 0.0 | 0.00 | 0.00 | 0.00 | 80 | 1018.6 |
| 20260507090338 | 55 | 302 | 0.0 | 0.0 | 0.00 | 0.00 | 0.00 | 79 | 1018.6 |
| 20260507085838 | 55 | 338 | 0.0 | 0.0 | 0.00 | 0.00 | 0.00 | 78 | 1019.0 |
| 20260507085341 | 56 | 310 | 0.0 | 0.0 | 0.00 | 0.00 | 0.00 | 78 | 1019.0 |
| 20260507084836 | 56 | 284 | 0.0 | 0.0 | 0.00 | 0.00 | 0.00 | 77 | 1019.0 |
| 20260507084315 | 57 | 301 | 0.0 | 0.0 | 0.00 | 0.00 | 0.00 | 76 | 1019.0 |
| 20260507083841 | 58 | 308 | 0.0 | 0.0 | 0.00 | 0.00 | 0.00 | 75 | 1019.0 |
| 20260507083340 | 58 | 270 | 0.0 | 0.0 | 0.00 | 0.00 | 0.00 | 76 | 1019.0 |
| 20260507082813 | 58 | 276 | 0.0 | 0.0 | 0.00 | 0.00 | 0.00 | 77 | 1019.0 |
| 20260507082336 | 58 | 253 | 0.0 | 0.0 | 0.00 | 0.00 | 0.00 | 77 | 1019.0 |
| 20260507081840 | 57 | 256 | 0.0 | 0.0 | 0.00 | 0.00 | 0.00 | 78 | 1019.3 |
| 20260507081338 | 57 | 271 | 0.0 | 0.0 | 0.00 | 0.00 | 0.00 | 78 | 1019.0 |
| 20260507080838 | 57 | 254 | 2.6 | 0.0 | 0.00 | 0.00 | 0.00 | 79 | 1019.3 |
| 20260507080340 | 56 | 263 | 0.0 | 0.0 | 0.00 | 0.00 | 0.00 | 81 | 1019.0 |
| 20260507075816 | 56 | 273 | 0.0 | 0.0 | 0.00 | 0.00 | 0.00 | 80 | 1019.0 |
| 20260507075338 | 56 | 310 | 0.0 | 0.0 | 0.00 | 0.00 | 0.00 | 78 | 1019.0 |
| 20260507074839 | 56 | 303 | 0.0 | 0.0 | 0.00 | 0.00 | 0.00 | 78 | 1019.0 |
| 20260507074313 | 56 | 313 | 0.0 | 0.0 | 0.00 | 0.00 | 0.00 | 78 | 1019.0 |
| 20260507073841 | 56 | 275 | 0.0 | 0.0 | 0.00 | 0.00 | 0.00 | 79 | 1019.0 |
| 20260507073314 | 57 | 287 | 0.0 | 0.0 | 0.00 | 0.00 | 0.00 | 78 | 1019.0 |
| 20260507072842 | 56 | 264 | 0.0 | 0.0 | 0.00 | 0.00 | 0.00 | 78 | 1019.3 |
| 20260507072338 | 56 | 298 | 0.0 | 0.0 | 0.00 | 0.00 | 0.00 | 77 | 1019.3 |
| 20260507071837 | 57 | 290 | 0.0 | 0.0 | 0.00 | 0.00 | 0.00 | 76 | 1019.3 |
| 20260507071338 | 57 | 274 | 0.0 | 0.0 | 0.00 | 0.00 | 0.00 | 76 | 1019.3 |
| 20260507070814 | 57 | 303 | 0.0 | 0.0 | 0.00 | 0.00 | 0.00 | 75 | 1019.3 |